Location: Goheenville
(40.9070°N, 79.3720°W)
Time: 17:16:51
(UTC-05:00)

Cosmos 1727 Rocket - Visible Passes

Search period start: 02 December 2016 00:00
Search period end: 12 December 2016 00:00
Orbit: 960 x 997 km, 82.9° (Epoch: 01 December)

Date Brightness Start Highest point End Pass type
(mag) Time Alt. Az. Time Alt. Az. Time Alt. Az.
02 Dec 6.4 06:01:15 10° NNE 06:05:44 20° ENE 06:10:11 10° ESE visible
03 Dec 5.5 06:26:47 10° N 06:32:27 37° ENE 06:38:06 10° SE visible
04 Dec 4.4 06:52:48 10° N 06:58:58 68° E 07:05:07 10° SSE visible
04 Dec 6.5 20:22:45 10° SSW 20:22:52 10° SSW 20:22:52 10° SSW visible
05 Dec 6.5 05:35:09 10° NNE 05:39:18 18° ENE 05:43:27 10° ESE visible
05 Dec 5.7 19:04:10 10° SSE 19:05:29 16° SSE 19:05:29 16° SSE visible
05 Dec 6.6 20:50:04 10° SW 20:50:18 11° SW 20:50:18 11° SW visible
06 Dec 5.7 06:00:31 10° N 06:06:03 33° ENE 06:11:34 10° SE visible
06 Dec 5.1 19:29:55 10° S 19:32:57 31° S 19:32:57 31° S visible
07 Dec 4.6 06:26:29 10° N 06:32:36 61° E 06:38:43 10° SSE visible
07 Dec 5.4 18:13:22 10° SE 18:15:40 17° ESE 18:15:40 17° ESE visible
07 Dec 4.9 19:56:21 10° SSW 20:00:29 41° SW 20:00:29 41° SW visible
08 Dec 6.5 05:09:04 10° NNE 05:12:52 17° ENE 05:16:39 10° ESE visible
08 Dec 4.0 06:52:47 10° N 06:58:58 74° W 07:05:09 10° S visible
08 Dec 4.5 18:38:02 10° SSE 18:43:14 36° E 18:43:14 36° E visible
08 Dec 5.5 20:23:31 10° SW 20:28:04 31° W 20:28:04 31° W visible
09 Dec 5.8 05:34:17 10° NNE 05:39:40 30° ENE 05:45:01 10° SE visible
09 Dec 3.8 19:03:38 10° S 19:09:47 68° E 19:10:52 57° NE visible
09 Dec 6.2 20:51:40 10° WSW 20:55:41 18° WNW 20:55:41 18° WNW visible
10 Dec 4.7 06:00:10 10° N 06:06:14 55° E 06:12:18 10° SSE visible
10 Dec 5.3 17:47:30 10° ESE 17:51:22 17° E 17:53:40 14° NE visible
10 Dec 4.2 19:29:57 10° SSW 19:36:08 67° W 19:38:30 39° NNW visible
11 Dec 6.6 04:43:03 10° NNE 04:46:26 15° ENE 04:49:47 10° E visible
11 Dec 4.0 06:26:26 10° N 06:32:38 82° W 06:38:51 10° S visible
11 Dec 4.6 18:11:56 10° SSE 18:17:19 33° E 18:21:19 16° NE visible
11 Dec 5.3 19:56:59 10° SW 20:02:39 36° WNW 20:06:09 21° NNW visible
